Date String (YYYY-MM-DD hh:mm:ss) UTC,Instrument flags,absolute air pressure of the measurement (hPa),sample flow rate (lpm),inlet stack bypass flow (lpm),air temperature of the measurement (°C),ambient temperature measured by the external sensor (°C),aerosol sample conditioner tube jacket temperature (°C),OPC LED temperature (°C),internal box temperature (°C),relative humidity of the measurement (%),span deviation,mass concentration of particles derived from Lorenz-Mie calculation of OPC scattering (μg/m³),mass concentration of particles derived from Lorenz-Mie calculation of OPC scattering (μg/m³),mass concentration of particles derived from Lorenz-Mie calculation of OPC scattering (μg/m³)
DateTimeUTC,F1_M11,P_M11,Q1_M11,Q2_M11,T1_M11,T2_M11,T3_M11,T4_M11,T5_M11,U1_M11,ZSPAN_M11,X0_M11,X2_M11,X1_M11
2024-04-13 08:00:00,SystemResetWarning,0826.8,5.01,000.00,026.2,025.4,000.0,034.6,027.9,009.7,0000.0,0009.67,0003.62,0001.87
2024-04-13 08:01:00,SystemResetWarning,0826.8,5.01,000.00,026.1,025.4,000.0,034.6,027.9,009.8,0000.0,0009.67,0003.62,0001.87
2024-04-13 08:02:00,SystemResetWarning,0826.8,5.00,000.00,026.1,025.4,000.0,034.6,027.9,009.8,0000.0,0010.18,0003.64,0001.88
2024-04-13 08:03:00,SystemResetWarning,0826.8,4.99,000.00,026.1,025.4,000.0,034.6,027.9,009.6,0000.0,0010.39,0003.62,0001.87
2024-04-13 08:04:00,SystemResetWarning,0826.8,5.00,000.00,026.1,025.4,000.0,034.6,027.9,009.7,0000.0,0011.73,0003.61,0001.86
2024-04-13 08:05:00,SystemResetWarning,0826.8,5.00,000.00,026.1,025.4,000.0,034.6,027.9,009.9,0000.0,0012.47,0003.58,0001.85
2024-04-13 08:06:00,SystemResetWarning,0826.7,5.01,000.00,026.1,025.4,000.0,034.6,027.9,009.7,0000.0,0012.30,0003.55,0001.86
2024-04-13 08:07:00,SystemResetWarning,0826.7,5.00,000.00,026.1,025.4,000.0,034.6,027.9,009.5,0000.0,0012.32,0003.56,0001.86
2024-04-13 08:08:00,SystemResetWarning,0826.6,4.99,000.00,026.1,025.4,000.0,034.6,027.9,009.3,0000.0,0012.94,0003.51,0001.86
2024-04-13 08:09:00,SystemResetWarning,0826.6,5.00,000.00,026.1,025.4,000.0,034.6,027.9,009.3,0000.0,0013.23,0003.42,0001.85
2024-04-13 08:10:00,SystemResetWarning,0826.6,4.99,000.00,026.1,025.4,000.0,034.6,027.9,009.3,0000.0,0012.65,0003.46,0001.86
2024-04-13 08:11:00,SystemResetWarning,0826.6,5.00,000.00,026.1,025.4,000.0,034.6,027.9,009.5,0000.0,0012.37,0003.43,0001.86
2024-04-13 08:12:00,SystemResetWarning,0826.6,5.00,000.00,026.1,025.4,000.0,034.6,027.9,009.4,0000.0,0012.30,0003.41,0001.87
2024-04-13 08:13:00,SystemResetWarning,0826.6,5.01,000.00,026.1,025.4,000.0,034.6,027.9,009.2,0000.0,0011.90,0003.36,0001.86
2024-04-13 08:14:00,SystemResetWarning,0826.6,5.01,000.00,026.1,025.4,000.0,034.6,027.9,009.2,0000.0,0011.37,0003.29,0001.85
2024-04-13 08:15:00,SystemResetWarning,0826.6,5.00,000.00,026.1,025.4,000.0,034.6,027.9,009.4,0000.0,0010.74,0003.31,0001.85
2024-04-13 08:16:00,SystemResetWarning,0826.6,4.99,000.00,026.1,025.4,000.0,034.6,027.9,009.4,0000.0,0009.26,0003.34,0001.85
2024-04-13 08:17:00,SystemResetWarning,0826.6,4.99,000.00,026.1,025.4,000.0,034.6,027.9,009.2,0000.0,0009.59,0003.35,0001.86
2024-04-13 08:18:00,SystemResetWarning,0826.6,5.00,000.00,026.1,025.4,000.0,034.6,027.9,009.2,0000.0,0009.46,0003.34,0001.87
2024-04-13 08:19:00,SystemResetWarning,0826.6,5.01,000.00,026.1,025.4,000.0,034.6,027.9,009.2,0000.0,0008.77,0003.36,0001.87
2024-04-13 08:20:00,SystemResetWarning,0826.6,5.01,000.00,026.1,025.4,000.0,034.6,027.9,009.2,0000.0,0008.19,0003.39,0001.87
2024-04-13 08:21:00,SystemResetWarning,0826.6,5.00,000.00,026.1,025.3,000.0,034.6,027.9,009.3,0000.0,0008.17,0003.38,0001.87
2024-04-13 08:22:00,SystemResetWarning,0826.6,4.98,000.00,026.1,025.3,000.0,034.6,027.9,009.1,0000.0,0008.18,0003.38,0001.88
2024-04-13 08:23:00,SystemResetWarning,0826.6,5.01,000.00,026.1,025.3,000.0,034.6,027.9,009.1,0000.0,0008.30,0003.41,0001.88
2024-04-13 08:24:00,SystemResetWarning,0826.6,5.00,000.00,026.1,025.3,000.0,034.6,027.9,009.0,0000.0,0008.32,0003.39,0001.88
2024-04-13 08:25:00,SystemResetWarning,0826.6,5.00,000.00,026.1,025.3,000.0,034.6,027.9,009.4,0000.0,0008.86,0003.43,0001.88
2024-04-13 08:26:00,SystemResetWarning,0826.6,5.01,000.00,026.1,025.3,000.0,034.6,027.9,009.4,0000.0,0009.24,0003.42,0001.89
2024-04-13 08:27:00,SystemResetWarning,0826.6,5.00,000.00,026.1,025.3,000.0,034.5,027.9,009.4,0000.0,0009.44,0003.42,0001.92
2024-04-13 08:28:00,SystemResetWarning,0826.6,5.00,000.00,026.1,025.3,000.0,034.5,027.9,009.4,0000.0,0009.95,0003.43,0001.92
2024-04-13 08:29:00,SystemResetWarning,0826.5,5.01,000.00,026.1,025.3,000.0,034.5,027.9,009.5,0000.0,0010.62,0003.42,0001.90
2024-04-13 08:30:00,SystemResetWarning,0826.5,4.99,000.00,026.1,025.4,000.0,034.5,027.9,009.6,0000.0,0010.58,0003.39,0001.89
2024-04-13 08:31:00,SystemResetWarning,0826.4,4.99,000.00,026.1,025.4,000.0,034.5,027.9,009.5,0000.0,0010.67,0003.36,0001.88
2024-04-13 08:32:00,SystemResetWarning,0826.4,5.00,000.00,026.1,025.4,000.0,034.5,027.9,009.4,0000.0,0010.77,0003.38,0001.89
2024-04-13 08:33:00,SystemResetWarning,0826.4,5.00,000.00,026.1,025.4,000.0,034.5,027.9,009.5,0000.0,0010.89,0003.41,0001.90
2024-04-13 08:34:00,SystemResetWarning,0826.4,5.01,000.00,026.1,025.4,000.0,034.5,027.9,009.5,0000.0,0011.01,0003.41,0001.89
2024-04-13 08:35:00,SystemResetWarning,0826.4,5.02,000.00,026.1,025.4,000.0,034.5,027.9,009.4,0000.0,0011.16,0003.44,0001.88
2024-04-13 08:36:00,SystemResetWarning,0826.4,5.00,000.00,026.1,025.4,000.0,034.5,027.9,009.6,0000.0,0010.69,0003.42,0001.87
2024-04-13 08:37:00,SystemResetWarning,0826.4,4.99,000.00,026.1,025.4,000.0,034.5,027.9,009.6,0000.0,0010.01,0003.43,0001.86
2024-04-13 08:38:00,SystemResetWarning,0826.4,4.99,000.00,026.1,025.4,000.0,034.5,027.9,009.6,0000.0,0009.88,0003.42,0001.86
2024-04-13 08:39:00,SystemResetWarning,0826.3,5.01,000.00,026.1,025.3,000.0,034.5,027.9,009.8,0000.0,0009.11,0003.40,0001.84
2024-04-13 08:40:00,SystemResetWarning,0826.3,5.00,000.00,026.1,025.3,000.0,034.5,027.9,009.9,0000.0,0008.27,0003.41,0001.85
2024-04-13 08:41:00,SystemResetWarning,0826.3,5.01,000.00,026.1,025.3,000.0,034.5,027.9,009.6,0000.0,0008.28,0003.45,0001.86
2024-04-13 08:42:00,SystemResetWarning,0826.3,5.00,000.00,026.1,025.3,000.0,034.5,027.9,009.4,0000.0,0008.10,0003.47,0001.88
2024-04-13 08:43:00,SystemResetWarning,0826.3,4.99,000.00,026.1,025.3,000.0,034.5,027.9,009.6,0000.0,0008.02,0003.48,0001.87
2024-04-13 08:44:00,SystemResetWarning,0826.3,5.00,000.00,026.1,025.3,000.0,034.5,027.9,009.5,0000.0,0008.00,0003.49,0001.85
2024-04-13 08:45:00,SystemResetWarning,0826.3,5.02,000.00,026.1,025.3,000.0,034.5,027.9,009.5,0000.0,0007.95,0003.50,0001.87
2024-04-13 08:46:00,SystemResetWarning,0826.3,5.00,000.00,026.1,025.3,000.0,034.5,027.9,009.7,0000.0,0007.77,0003.49,0001.87
2024-04-13 08:47:00,SystemResetWarning,0826.4,4.99,000.00,026.1,025.3,000.0,034.5,027.9,009.7,0000.0,0007.81,0003.50,0001.89
2024-04-13 08:48:00,SystemResetWarning,0826.4,5.01,000.00,026.1,025.3,000.0,034.5,027.9,009.5,0000.0,0008.03,0003.55,0001.89
2024-04-13 08:49:00,SystemResetWarning,0826.4,5.01,000.00,026.1,025.3,000.0,034.5,027.9,009.3,0000.0,0008.05,0003.57,0001.87
2024-04-13 08:50:00,SystemResetWarning,0826.4,5.01,000.00,026.1,025.3,000.0,034.5,027.9,009.4,0000.0,0008.14,0003.59,0001.88
2024-04-13 08:51:00,SystemResetWarning,0826.5,5.00,000.00,026.1,025.3,000.0,034.5,027.9,009.8,0000.0,0008.17,0003.62,0001.88
2024-04-13 08:52:00,SystemResetWarning,0826.6,4.99,000.00,026.1,025.4,000.0,034.5,027.9,009.8,0000.0,0008.25,0003.63,0001.88
2024-04-13 08:53:00,SystemResetWarning,0826.6,4.99,000.00,026.1,025.3,000.0,034.5,027.9,009.8,0000.0,0008.33,0003.65,0001.88
2024-04-13 08:54:00,SystemResetWarning,0826.6,5.01,000.00,026.1,025.3,000.0,034.5,027.9,009.7,0000.0,0008.31,0003.64,0001.87
2024-04-13 08:55:00,SystemResetWarning,0826.6,5.01,000.00,026.1,025.4,000.0,034.5,027.9,010.0,0000.0,0008.28,0003.61,0001.86
2024-04-13 08:56:00,SystemResetWarning,0826.6,5.00,000.00,026.1,025.4,000.0,034.5,027.9,010.5,0000.0,0008.93,0003.59,0001.85
2024-04-13 08:57:00,SystemResetWarning,0826.6,5.00,000.00,026.1,025.4,000.0,034.5,027.9,010.2,0000.0,0009.34,0003.60,0001.83
2024-04-13 08:58:00,SystemResetWarning,0826.6,5.00,000.00,026.1,025.4,000.0,034.5,027.9,010.0,0000.0,0009.69,0003.60,0001.83
2024-04-13 08:59:00,SystemResetWarning,0826.6,5.00,000.00,026.1,025.4,000.0,034.5,027.9,010.0,0000.0,0009.66,0003.56,0001.84
